Zurück zum Katalog

CZ-4B DEB

AktivPO
NORAD 29538·DEBRIS·🇨🇳 China

Gestartet Apr 26, 2006 von Taiyuan Satellite Launch Center

Loading…

Nächste Überflüge (nächste 24 Stunden)

TLE

AktuellSource: Space-Track

Epoche: Sep 14, 2026, 04:52 UTC

1 29538U 06015E   26257.20328016  .00058875  00000-0  15472-2 0  9997
2 29538  98.0755  45.7025 0030533 127.2960 233.1074 15.37915526 82663

Verfolge CZ-4B DEB in Echtzeit mit AllMySat

Download on the App Store